period_start,C,m1,H,J0,J1,J2,J3,J4,J5,JA,JB,JC,JD,JJ,JK,JN,#
2017-03-25 00:02:31,0.45,3.73,0.00,23.20,26.80,30.79,14.59,49.00,1019.56,2028.01,2318.23,2190.39,2526.68,599.87,597.23,6.74,0000 0000 0000 0000 000000
2017-03-25 00:07:32,0.46,3.75,0.00,23.23,26.80,30.80,14.66,49.04,1019.55,2028.01,2312.66,2186.31,2521.96,600.34,597.64,6.79,0000 0000 0000 0000 000000
2017-03-25 00:12:33,0.48,3.77,0.00,23.25,26.82,30.86,14.62,49.03,1019.56,2028.00,2306.52,2181.90,2516.95,599.99,597.30,6.84,0000 0000 0000 0000 000000
2017-03-25 00:17:34,0.47,3.80,0.00,23.27,26.83,30.87,14.62,49.09,1019.55,2028.00,2300.68,2177.64,2512.09,600.05,597.26,6.89,0000 0000 0000 0000 000000
2017-03-25 00:22:36,0.48,3.82,0.00,23.25,26.85,30.88,14.52,49.05,1019.55,2028.00,2294.71,2173.41,2507.15,599.75,596.98,6.94,0000 0000 0000 0000 000000
2017-03-25 00:27:37,0.48,3.85,0.00,23.25,26.87,30.94,14.60,49.08,1019.55,2028.00,2288.83,2169.16,2502.36,599.95,597.18,6.99,0000 0000 0000 0000 000000
2017-03-25 00:32:38,0.45,3.87,0.00,23.29,26.88,30.93,14.58,49.04,1019.55,2028.00,2283.27,2165.12,2497.72,600.01,597.13,7.04,0000 0000 0000 0000 000000
2017-03-25 00:37:40,0.44,3.89,0.00,23.33,26.90,30.90,14.56,49.05,1019.54,2028.00,2277.86,2161.16,2493.33,599.91,596.93,7.09,0000 0000 0000 0000 000000
2017-03-25 00:42:41,0.44,3.92,0.00,23.35,26.92,30.95,14.53,49.11,1019.51,2028.00,2272.56,2157.23,2488.87,599.83,596.85,7.14,0000 0000 0000 0000 000000
2017-03-25 00:47:43,0.45,3.94,0.00,23.38,26.95,30.97,14.59,49.13,1019.53,2027.99,2267.19,2153.31,2484.40,600.07,597.05,7.19,0000 0000 0000 0000 000000
2017-03-25 00:52:44,0.45,3.96,0.00,23.39,26.97,30.99,14.62,49.13,1019.53,2027.95,2261.71,2149.37,2479.86,600.05,597.04,7.24,0000 0000 0000 0000 000000
2017-03-25 00:57:45,0.42,3.98,0.00,23.36,26.99,30.98,14.62,49.03,1019.54,2027.84,2256.41,2145.49,2475.44,600.02,596.99,7.29,0000 0000 0000 0000 000000
2017-03-25 01:02:46,0.37,4.00,0.00,23.40,27.01,31.02,14.64,49.11,1019.53,2027.35,2251.34,2141.71,2471.12,600.00,596.92,7.34,0000 0000 0000 0000 000000
2017-03-25 01:07:48,0.42,4.02,0.00,23.44,27.03,31.05,14.66,49.24,1019.51,2027.10,2246.13,2137.91,2466.77,600.15,597.00,7.39,0000 0000 0000 0000 000000
2017-03-25 01:12:49,0.43,4.04,0.00,23.45,27.06,31.07,14.49,49.13,1019.48,2027.02,2240.97,2134.10,2462.38,599.89,596.78,7.44,0000 0000 0000 0000 000000
2017-03-25 01:17:51,0.42,4.07,0.00,23.49,27.08,31.06,14.60,49.20,1019.26,2027.00,2236.08,2130.43,2458.18,599.91,596.42,7.49,0000 0000 0000 0000 000000
2017-03-25 01:22:52,0.46,4.09,0.00,23.52,27.11,31.05,14.60,49.14,1019.22,2027.00,2230.70,2126.59,2453.74,599.98,596.50,7.54,0000 0000 0000 0000 000000
2017-03-25 01:27:53,0.43,4.11,0.00,23.54,27.14,31.11,14.61,49.10,1019.18,2026.99,2225.56,2122.87,2449.49,600.16,596.62,7.59,0000 0000 0000 0000 000000
2017-03-25 01:32:54,0.44,4.13,0.00,23.57,27.17,31.09,14.59,49.09,1019.12,2026.98,2220.39,2119.18,2445.26,600.01,596.33,7.64,0000 0000 0000 0000 000000
2017-03-25 01:37:56,0.42,4.16,0.00,23.61,27.20,31.09,14.54,49.07,1019.06,2026.94,2215.29,2115.53,2441.12,599.97,596.19,7.69,0000 0000 0000 0000 000000
2017-03-25 01:42:57,0.41,4.18,0.00,23.62,27.22,31.09,14.44,49.09,1019.08,2026.86,2210.30,2111.99,2436.98,599.90,596.30,7.75,0000 0000 0000 0000 000000
2017-03-25 01:47:58,0.34,4.20,0.00,23.63,27.24,31.13,14.57,49.12,1019.06,2026.50,2205.59,2108.69,2433.02,600.09,596.29,7.80,0000 0000 0000 0000 000000
2017-03-25 01:52:59,0.37,4.21,0.00,23.68,27.26,31.16,14.59,49.13,1019.06,2026.16,2200.93,2105.30,2429.21,600.09,596.30,7.85,0000 0000 0000 0000 000000
2017-03-25 01:58:01,0.40,4.23,0.00,23.71,27.29,31.21,14.58,49.02,1019.06,2026.04,2196.34,2101.88,2425.30,600.30,596.29,7.90,0000 0000 0000 0000 000000
2017-03-25 02:03:02,0.40,4.26,0.00,23.71,27.32,31.26,14.52,49.07,1019.06,2026.00,2191.42,2098.34,2421.19,599.80,595.86,7.95,0000 0000 0000 0000 000000
2017-03-25 02:08:04,0.41,4.28,0.00,23.74,27.34,31.26,14.67,49.11,1019.06,2026.00,2186.88,2094.99,2417.34,600.37,596.30,8.00,0000 0000 0000 0000 000000
2017-03-25 02:13:05,0.44,4.30,0.00,23.77,27.37,31.31,14.63,49.07,1019.06,2025.99,2181.85,2091.37,2413.24,600.07,596.05,8.05,0000 0000 0000 0000 000000
2017-03-25 02:18:06,0.42,4.32,0.00,23.91,27.39,31.31,14.52,49.02,1019.02,2025.98,2176.99,2087.95,2409.27,600.04,595.69,8.10,0000 0000 0000 0000 000000
2017-03-25 02:23:07,0.43,4.34,0.00,24.34,27.42,31.18,14.48,49.02,1018.78,2025.91,2171.92,2084.31,2405.12,600.26,594.87,8.15,0000 0000 0000 0000 000000
2017-03-25 02:28:09,0.34,4.36,0.00,24.17,27.45,31.08,14.35,49.09,1018.77,2025.68,2167.39,2080.96,2401.31,599.60,594.56,8.20,0000 0000 0000 0000 000000
2017-03-25 02:33:10,0.36,4.38,0.00,24.32,27.48,31.11,14.45,49.07,1018.75,2025.22,2162.98,2077.76,2397.59,600.15,594.82,8.25,0000 0000 0000 0000 000000
2017-03-25 02:38:11,0.40,4.40,0.00,24.20,27.50,31.13,14.54,49.08,1018.61,2025.04,2158.27,2074.43,2393.77,600.08,594.93,8.30,0000 0000 0000 0000 000000
2017-03-25 02:43:13,0.37,4.41,0.00,24.05,27.52,31.26,14.50,49.04,1018.58,2025.04,2153.92,2071.28,2390.15,599.74,594.81,8.35,0000 0000 0000 0000 000000
2017-03-25 02:48:14,0.37,4.43,0.00,24.01,27.53,31.25,14.54,49.05,1018.57,2025.00,2149.75,2068.19,2386.59,600.01,595.14,8.40,0000 0000 0000 0000 000000
2017-03-25 02:53:15,0.40,4.45,0.00,23.98,27.55,31.13,14.56,49.08,1018.57,2025.00,2145.24,2064.98,2382.90,600.47,595.60,8.45,0000 0000 0000 0000 000000
2017-03-25 02:58:16,0.39,4.47,0.00,23.95,27.55,31.15,14.62,49.17,1018.55,2025.01,2140.65,2061.81,2379.23,600.26,595.48,8.50,0000 0000 0000 0000 000000
2017-03-25 03:03:18,0.38,4.49,0.00,23.97,27.55,31.14,14.59,49.15,1018.48,2025.00,2136.24,2058.63,2375.62,600.18,595.40,8.55,0000 0000 0000 0000 000000
2017-03-25 03:08:19,0.36,4.51,0.00,23.98,27.56,31.22,14.51,49.21,1018.47,2025.00,2132.31,2055.71,2372.24,600.04,595.21,8.60,0000 0000 0000 0000 000000
2017-03-25 03:13:20,0.38,4.53,0.00,24.01,27.57,31.26,14.62,49.22,1018.48,2025.00,2128.00,2052.66,2368.76,600.01,595.15,8.65,0000 0000 0000 0000 000000
2017-03-25 03:18:21,0.36,4.55,0.00,24.46,27.57,31.16,14.46,49.13,1018.46,2024.99,2124.01,2049.71,2365.56,599.77,593.88,8.70,0000 0000 0000 0000 000000
2017-03-25 03:23:22,0.37,4.57,0.00,24.40,27.60,31.04,14.51,49.06,1018.52,2024.98,2119.85,2046.83,2362.07,599.82,594.12,8.75,0000 0000 0000 0000 000000
2017-03-25 03:28:23,0.35,4.59,0.00,24.37,27.61,31.02,14.46,49.17,1018.44,2024.97,2115.84,2044.05,2358.74,600.17,594.51,8.80,0000 0000 0000 0000 000000
2017-03-25 03:33:25,0.38,4.60,0.00,24.51,27.62,31.06,14.49,49.23,1018.22,2024.93,2111.94,2041.15,2355.43,600.07,594.05,8.85,0000 0000 0000 0000 000000
2017-03-25 03:38:26,0.34,4.62,0.00,24.44,27.64,31.17,14.46,49.13,1018.11,2024.81,2107.93,2038.10,2351.91,599.92,594.00,8.90,0000 0000 0000 0000 000000
2017-03-25 03:43:27,0.34,4.64,0.00,24.32,27.65,31.25,14.53,49.16,1018.08,2024.58,2103.79,2035.17,2348.54,599.67,594.00,8.95,0000 0000 0000 0000 000000
2017-03-25 03:48:29,0.38,4.66,0.00,24.28,27.65,31.21,14.51,49.08,1018.08,2024.50,2099.64,2032.31,2345.21,599.95,594.27,9.00,0000 0000 0000 0000 000000
2017-03-25 03:53:30,0.31,4.68,0.00,24.27,27.64,31.16,14.45,49.09,1018.08,2024.32,2095.97,2029.59,2342.08,599.77,594.10,9.05,0000 0000 0000 0000 000000
2017-03-25 03:58:31,0.37,4.69,0.00,24.38,27.64,31.19,14.44,49.05,1018.05,2024.24,2091.93,2026.76,2338.85,600.03,594.07,9.10,0000 0000 0000 0000 000000
2017-03-25 04:03:33,0.32,4.71,0.00,24.75,27.65,31.06,14.37,49.09,1018.00,2024.26,2088.28,2024.12,2335.84,599.93,593.29,9.15,0000 0000 0000 0000 000000
2017-03-25 04:08:34,0.40,4.73,0.00,24.54,27.65,30.93,14.52,49.30,1017.92,2024.15,2083.94,2021.11,2332.32,600.21,593.99,9.20,0000 0000 0000 0000 000000
2017-03-25 04:13:35,0.36,4.75,0.00,24.66,27.65,30.94,14.45,49.13,1017.80,2024.11,2079.86,2018.23,2329.00,600.01,593.55,9.25,0000 0000 0000 0000 000000
2017-03-25 04:18:37,0.36,4.77,0.00,24.77,27.65,30.93,14.40,49.17,1017.63,2024.15,2075.91,2015.45,2325.82,600.08,593.08,9.30,0000 0000 0000 0000 000000
2017-03-25 04:23:38,0.32,4.78,0.00,24.78,27.67,30.93,14.39,49.19,1017.60,2024.04,2072.31,2012.79,2322.82,600.25,593.18,9.35,0000 0000 0000 0000 000000
2017-03-25 04:28:39,0.33,4.80,0.00,24.75,27.67,30.93,14.48,49.23,1017.60,2024.02,2068.68,2010.16,2319.79,600.04,593.08,9.40,0000 0000 0000 0000 000000
2017-03-25 04:33:41,0.35,4.82,0.00,24.82,27.67,30.91,14.47,49.23,1017.59,2024.06,2064.80,2007.57,2316.78,599.83,592.92,9.45,0000 0000 0000 0000 000000
2017-03-25 04:38:42,0.30,4.83,0.00,24.81,27.67,30.86,14.45,49.07,1017.59,2024.07,2061.45,2005.12,2314.02,599.81,592.77,9.50,0000 0000 0000 0000 000000
2017-03-25 04:43:43,0.34,4.85,0.00,24.79,27.67,30.85,14.38,49.22,1017.59,2024.03,2057.84,2002.54,2311.09,599.84,592.85,9.55,0000 0000 0000 0000 000000
2017-03-25 04:48:44,0.32,4.87,0.00,24.78,27.67,30.83,14.41,49.28,1017.51,2024.05,2054.46,2000.16,2308.29,599.90,593.00,9.60,0000 0000 0000 0000 000000
2017-03-25 04:53:45,0.33,4.88,0.00,24.78,27.67,30.84,14.33,49.17,1017.35,2024.06,2050.96,1997.65,2305.45,599.87,592.77,9.65,0000 0000 0000 0000 000000
2017-03-25 04:58:47,0.32,4.90,0.00,24.82,27.67,30.79,14.41,49.29,1017.38,2024.06,2047.47,1995.21,2302.62,600.06,592.91,9.70,0000 0000 0000 0000 000000
2017-03-25 05:03:48,0.32,4.92,0.00,24.84,27.67,30.78,14.41,49.11,1017.20,2024.09,2044.20,1992.73,2299.84,599.97,592.67,9.75,0000 0000 0000 0000 000000
2017-03-25 05:08:49,0.32,4.93,0.00,24.82,27.66,30.78,14.42,49.22,1017.18,2024.05,2040.94,1990.36,2297.12,600.24,593.11,9.80,0000 0000 0000 0000 000000
2017-03-25 05:13:50,0.33,4.95,0.00,24.83,27.65,30.75,14.37,49.33,1017.21,2024.10,2037.37,1987.88,2294.30,599.84,592.56,9.85,0000 0000 0000 0000 000000
2017-03-25 05:18:52,0.33,4.97,0.00,24.85,27.65,30.75,14.41,49.29,1017.13,2024.07,2033.96,1985.44,2291.47,599.97,592.57,9.90,0000 0000 0000 0000 000000
2017-03-25 05:23:53,0.30,4.98,0.00,24.88,27.65,30.74,14.40,49.14,1017.11,2024.08,2030.72,1983.21,2288.71,599.86,592.40,9.95,0000 0000 0000 0000 000000
2017-03-25 05:28:55,0.33,5.00,0.00,24.85,27.63,30.72,14.44,49.23,1017.11,2024.04,2027.31,1980.79,2285.86,600.04,592.71,10.00,0000 0000 0000 0000 000000
2017-03-25 05:33:56,0.40,5.02,0.00,24.88,27.62,30.80,14.45,49.24,1017.11,2024.03,2023.14,1977.93,2282.55,599.58,592.25,10.06,0000 0000 0000 0000 000000
2017-03-25 05:38:58,0.37,5.04,0.00,24.91,27.62,30.76,14.35,49.27,1017.08,2024.05,2019.26,1975.21,2279.42,599.31,592.03,10.11,0000 0000 0000 0000 000000
2017-03-25 05:43:59,0.36,5.06,0.00,24.91,27.61,30.75,14.37,49.21,1016.90,2024.15,2015.51,1972.61,2276.43,600.35,592.74,10.16,0000 0000 0000 0000 000000
2017-03-25 05:49:01,0.39,5.07,0.00,24.92,27.60,30.74,14.36,49.15,1016.69,2024.32,2011.80,1970.04,2273.41,600.00,592.44,10.21,0000 0000 0000 0000 000000
2017-03-25 05:54:02,0.32,5.09,0.00,24.91,27.58,30.70,14.37,49.15,1016.63,2024.29,2008.19,1967.54,2270.52,599.85,592.03,10.26,0000 0000 0000 0000 000000
2017-03-25 05:59:03,0.40,5.11,0.00,24.93,27.57,30.70,14.42,49.13,1016.62,2024.31,2004.13,1964.78,2267.30,600.23,592.41,10.31,0000 0000 0000 0000 000000
2017-03-25 06:04:05,0.38,5.13,0.00,24.90,27.55,30.70,14.33,49.13,1016.62,2024.70,2000.42,1962.29,2264.43,599.96,592.24,10.36,0000 0000 0000 0000 000000
2017-03-25 06:09:06,0.33,5.15,0.00,24.88,27.55,30.67,14.34,49.08,1016.58,2024.91,1997.04,1960.04,2261.73,599.95,592.22,10.41,0000 0000 0000 0000 000000
2017-03-25 06:14:08,0.32,5.17,0.00,24.93,27.52,30.66,14.37,49.08,1016.37,2024.96,1993.70,1957.67,2259.09,600.20,592.35,10.46,0000 0000 0000 0000 000000
2017-03-25 06:19:09,0.32,5.18,0.00,24.91,27.51,30.65,14.41,49.16,1016.27,2024.97,1990.58,1955.47,2256.52,600.22,592.27,10.51,0000 0000 0000 0000 000000
2017-03-25 06:24:10,0.34,5.20,0.00,24.92,27.50,30.66,14.33,49.17,1016.14,2024.98,1986.98,1953.13,2253.79,600.26,592.14,10.56,0000 0000 0000 0000 000000
2017-03-25 06:29:12,0.31,5.22,0.00,24.92,27.48,30.64,14.42,49.15,1016.13,2024.99,1983.77,1950.88,2251.19,600.62,592.48,10.61,0000 0000 0000 0000 000000
2017-03-25 06:34:13,0.29,5.23,0.00,24.92,27.47,30.62,14.34,49.09,1016.12,2024.99,1980.72,1948.71,2248.66,600.01,591.96,10.66,0000 0000 0000 0000 000000
2017-03-25 06:39:14,0.31,5.25,0.00,24.92,27.45,30.62,14.35,49.18,1015.91,2024.99,1977.51,1946.54,2246.13,599.81,591.62,10.71,0000 0000 0000 0000 000000
2017-03-25 06:44:15,0.29,5.26,0.00,24.92,27.45,30.62,14.31,49.08,1015.72,2024.99,1974.41,1944.42,2243.63,599.92,591.58,10.76,0000 0000 0000 0000 000000
2017-03-25 06:49:16,0.31,5.28,0.00,24.93,27.43,30.63,14.38,49.16,1015.65,2024.99,1971.38,1942.32,2241.20,600.01,591.63,10.81,0000 0000 0000 0000 000000
2017-03-25 06:54:18,0.27,5.29,0.00,24.93,27.42,30.63,14.42,49.06,1015.64,2025.00,1968.44,1940.33,2239.00,600.20,591.88,10.86,0000 0000 0000 0000 000000
2017-03-25 06:59:19,0.28,5.31,0.00,24.93,27.40,30.59,14.38,49.16,1015.64,2025.01,1965.51,1938.30,2236.70,599.79,591.45,10.91,0000 0000 0000 0000 000000
2017-03-25 07:04:20,0.27,5.32,0.00,24.94,27.40,30.60,14.35,49.12,1015.64,2025.02,1962.72,1936.35,2234.44,599.86,591.41,10.96,0000 0000 0000 0000 000000
2017-03-25 07:09:21,0.31,5.33,0.00,24.93,27.38,30.58,14.37,49.17,1015.61,2025.07,1959.67,1934.33,2232.09,599.66,591.20,11.01,0000 0000 0000 0000 000000
2017-03-25 07:14:23,0.31,5.35,0.00,24.94,27.37,30.59,14.32,49.08,1015.58,2025.13,1956.59,1932.28,2229.69,599.76,591.31,11.06,0000 0000 0000 0000 000000
2017-03-25 07:19:24,0.30,5.36,0.00,24.94,27.36,30.58,14.39,49.21,1015.55,2025.24,1953.67,1930.27,2227.35,599.93,591.38,11.11,0000 0000 0000 0000 000000
2017-03-25 07:24:25,0.33,5.38,0.00,24.93,27.35,30.59,14.32,49.17,1015.26,2025.40,1950.57,1928.20,2224.94,599.91,591.28,11.16,0000 0000 0000 0000 000000
2017-03-25 07:29:26,0.34,5.40,0.00,24.94,27.34,30.55,14.38,49.17,1015.18,2025.80,1947.60,1926.20,2222.60,600.27,591.56,11.21,0000 0000 0000 0000 000000
2017-03-25 07:34:28,0.30,5.41,0.00,24.94,27.32,30.54,14.37,49.15,1015.16,2025.90,1944.52,1924.09,2220.15,599.90,591.22,11.26,0000 0000 0000 0000 000000
2017-03-25 07:39:29,0.31,5.43,0.00,24.95,27.32,30.54,14.34,49.15,1015.15,2025.93,1941.47,1922.05,2217.72,599.80,591.02,11.31,0000 0000 0000 0000 000000
2017-03-25 07:44:30,0.31,5.45,0.00,24.96,27.30,30.53,14.41,49.33,1015.14,2025.94,1938.29,1919.95,2215.27,599.66,591.07,11.36,0000 0000 0000 0000 000000
2017-03-25 07:49:32,0.29,5.46,0.00,24.96,27.30,30.53,14.29,49.20,1015.10,2025.98,1935.33,1918.01,2212.89,600.00,591.18,11.41,0000 0000 0000 0000 000000
2017-03-25 07:54:33,0.29,5.48,0.00,24.97,27.29,30.54,14.35,49.24,1015.01,2025.98,1932.39,1915.96,2210.53,600.05,591.21,11.46,0000 0000 0000 0000 000000
2017-03-25 07:59:34,0.29,5.49,0.00,24.96,27.28,30.52,14.38,49.29,1014.74,2025.98,1929.43,1913.95,2208.18,600.03,591.05,11.51,0000 0000 0000 0000 000000
2017-03-25 08:04:35,0.29,5.50,0.00,24.94,27.27,30.52,14.29,49.27,1014.68,2025.98,1926.57,1912.00,2205.86,599.80,590.82,11.56,0000 0000 0000 0000 000000
2017-03-25 08:09:36,0.29,5.52,0.00,24.95,27.27,30.50,14.37,49.13,1014.67,2025.99,1923.59,1909.98,2203.46,600.27,591.16,11.61,0000 0000 0000 0000 000000
2017-03-25 08:14:38,0.29,5.53,0.00,24.95,27.27,30.51,14.34,49.17,1014.66,2025.99,1920.76,1908.01,2201.17,600.39,591.44,11.66,0000 0000 0000 0000 000000
2017-03-25 08:19:39,0.30,5.55,0.00,24.95,27.25,30.51,14.33,49.15,1014.66,2025.99,1917.71,1905.93,2198.78,599.55,590.62,11.71,0000 0000 0000 0000 000000
2017-03-25 08:24:40,0.30,5.56,0.00,24.97,27.25,30.49,14.32,49.13,1014.66,2025.99,1914.65,1903.96,2196.36,600.07,591.11,11.76,0000 0000 0000 0000 000000
2017-03-25 08:29:41,0.29,5.58,0.00,24.94,27.25,30.48,14.28,49.13,1014.65,2025.99,1911.79,1901.97,2194.09,599.47,590.54,11.81,0000 0000 0000 0000 000000
2017-03-25 08:34:43,0.31,5.60,0.00,24.95,27.24,30.49,14.34,49.17,1014.58,2025.99,1908.67,1899.89,2191.63,600.09,591.05,11.86,0000 0000 0000 0000 000000
2017-03-25 08:39:44,0.29,5.61,0.00,24.94,27.22,30.48,14.31,49.31,1014.30,2026.00,1905.79,1897.93,2189.37,599.75,590.50,11.91,0000 0000 0000 0000 000000
2017-03-25 08:44:46,0.29,5.63,0.00,24.94,27.22,30.49,14.35,49.27,1014.20,2026.01,1902.92,1895.98,2187.09,600.05,590.70,11.96,0000 0000 0000 0000 000000
2017-03-25 08:49:47,0.30,5.64,0.00,24.95,27.22,30.48,14.35,49.23,1014.19,2026.01,1899.99,1894.02,2184.78,599.83,590.71,12.01,0000 0000 0000 0000 000000
2017-03-25 08:54:48,0.29,5.65,0.00,24.93,27.22,30.49,14.34,49.25,1014.18,2026.01,1897.03,1892.03,2182.42,600.38,591.12,12.06,0000 0000 0000 0000 000000
2017-03-25 08:59:49,0.29,5.67,0.00,24.95,27.22,30.49,14.40,49.31,1014.18,2026.03,1894.18,1890.10,2180.18,600.43,591.14,12.11,0000 0000 0000 0000 000000
2017-03-25 09:04:50,0.28,5.68,0.00,24.96,27.21,30.47,14.34,49.27,1014.17,2026.02,1891.41,1888.24,2177.96,600.35,590.92,12.16,0000 0000 0000 0000 000000
2017-03-25 09:09:52,0.29,5.70,0.00,24.96,27.20,30.47,14.31,49.37,1014.10,2026.05,1888.69,1886.36,2175.81,599.86,590.53,12.21,0000 0000 0000 0000 000000
2017-03-25 09:14:53,0.29,5.71,0.00,24.94,27.20,30.47,14.31,49.29,1014.07,2026.06,1885.79,1884.41,2173.64,599.93,590.67,12.26,0000 0000 0000 0000 000000
2017-03-25 09:19:54,0.31,5.73,0.00,24.93,27.20,30.47,14.33,49.39,1013.99,2026.22,1882.98,1882.54,2171.45,600.10,590.82,12.31,0000 0000 0000 0000 000000
2017-03-25 09:24:56,0.30,5.75,0.00,24.93,27.20,30.47,14.23,49.23,1013.79,2026.42,1880.29,1880.69,2169.32,599.79,590.23,12.36,0000 0000 0000 0000 000000
2017-03-25 09:29:57,0.29,5.76,0.00,24.93,27.20,30.46,14.44,49.31,1013.71,2026.38,1877.46,1878.78,2167.08,600.45,590.88,12.41,0000 0000 0000 0000 000000
2017-03-25 09:34:58,0.29,5.78,0.00,24.94,27.20,30.49,14.35,49.27,1013.69,2026.50,1874.73,1876.96,2164.95,600.02,590.43,12.46,0000 0000 0000 0000 000000
2017-03-25 09:39:59,0.29,5.79,0.00,24.93,27.20,30.47,14.35,49.35,1013.69,2026.61,1872.03,1875.16,2162.80,599.83,590.29,12.52,0000 0000 0000 0000 000000
2017-03-25 09:45:01,0.26,5.81,0.00,24.93,27.20,30.46,14.32,49.27,1013.69,2026.58,1869.29,1873.30,2160.67,600.25,590.72,12.57,0000 0000 0000 0000 000000
2017-03-25 09:50:02,0.29,5.82,0.00,24.93,27.20,30.47,14.28,49.43,1013.69,2026.68,1866.61,1871.50,2158.54,599.72,590.25,12.62,0000 0000 0000 0000 000000
2017-03-25 09:55:03,0.29,5.83,0.00,24.92,27.20,30.46,14.33,49.35,1013.68,2026.71,1863.90,1869.67,2156.40,600.09,590.61,12.67,0000 0000 0000 0000 000000
2017-03-25 10:00:04,0.26,5.85,0.00,24.93,27.19,30.46,14.32,49.29,1013.67,2026.51,1861.15,1867.81,2154.16,599.93,590.35,12.72,0000 0000 0000 0000 000000
2017-03-25 10:05:06,0.32,5.86,0.00,24.92,27.19,30.45,14.29,49.30,1013.61,2026.57,1858.43,1865.96,2151.99,600.18,590.63,12.77,0000 0000 0000 0000 000000
2017-03-25 10:10:07,0.29,5.88,0.00,24.92,27.19,30.46,14.29,49.33,1013.34,2026.72,1855.78,1864.11,2149.87,599.97,590.32,12.82,0000 0000 0000 0000 000000
2017-03-25 10:15:08,0.24,5.89,0.00,24.93,27.19,30.47,14.32,49.20,1013.22,2026.60,1853.33,1862.33,2147.82,599.85,589.98,12.87,0000 0000 0000 0000 000000
2017-03-25 10:20:09,0.30,5.90,0.00,24.91,27.18,30.47,14.27,49.41,1013.20,2026.84,1850.74,1860.58,2145.77,599.62,589.83,12.92,0000 0000 0000 0000 000000
2017-03-25 10:25:10,0.28,5.92,0.00,24.90,27.18,30.47,14.31,49.28,1013.20,2026.84,1848.08,1858.79,2143.67,599.78,590.00,12.97,0000 0000 0000 0000 000000
2017-03-25 10:30:11,0.26,5.93,0.00,24.90,27.17,30.45,14.35,49.33,1013.19,2026.79,1845.39,1856.98,2141.54,600.05,590.28,13.02,0000 0000 0000 0000 000000
2017-03-25 10:35:13,0.27,5.95,0.00,24.90,27.17,30.46,14.38,49.30,1013.11,2026.69,1842.76,1855.31,2139.46,600.50,590.68,13.07,0000 0000 0000 0000 000000
2017-03-25 10:40:14,0.28,5.96,0.00,24.89,27.17,30.47,14.33,49.33,1012.87,2026.87,1840.30,1853.71,2137.52,600.17,590.21,13.12,0000 0000 0000 0000 000000
2017-03-25 10:45:15,0.26,5.97,0.00,24.90,27.17,30.47,14.27,49.35,1012.74,2026.92,1837.74,1852.05,2135.51,599.62,589.53,13.17,0000 0000 0000 0000 000000
2017-03-25 10:50:16,0.27,5.99,0.00,24.88,27.17,30.47,14.31,49.49,1012.71,2026.94,1835.21,1850.39,2133.54,599.88,589.80,13.22,0000 0000 0000 0000 000000
2017-03-25 10:55:17,0.26,6.00,0.00,24.89,27.17,30.45,14.38,49.49,1012.71,2026.94,1832.77,1848.71,2131.60,600.03,589.98,13.27,0000 0000 0000 0000 000000
2017-03-25 11:00:19,0.23,6.01,0.00,24.88,27.17,30.48,14.30,49.47,1012.71,2026.98,1830.38,1847.14,2129.76,600.20,590.22,13.32,0000 0000 0000 0000 000000
2017-03-25 11:05:21,0.27,6.03,0.00,24.92,27.17,30.47,14.30,49.57,1012.67,2026.98,1828.07,1845.57,2127.92,599.98,590.01,13.37,0000 0000 0000 0000 000000
2017-03-25 11:10:22,0.23,6.04,0.00,24.91,27.17,30.47,14.28,49.58,1012.49,2026.98,1825.68,1844.02,2126.10,599.80,589.60,13.42,0000 0000 0000 0000 000000
2017-03-25 11:15:23,0.25,6.05,0.00,24.88,27.17,30.48,14.29,49.51,1012.27,2026.97,1823.36,1842.45,2124.22,600.06,589.80,13.47,0000 0000 0000 0000 000000
2017-03-25 11:20:25,0.26,6.06,0.00,24.87,27.17,30.46,14.32,49.53,1012.24,2026.98,1821.01,1840.84,2122.37,600.18,589.85,13.52,0000 0000 0000 0000 000000
2017-03-25 11:25:26,0.23,6.08,0.00,24.88,27.17,30.46,14.30,49.61,1012.22,2026.97,1818.64,1839.29,2120.55,599.54,589.25,13.57,0000 0000 0000 0000 000000
2017-03-25 11:30:27,0.27,6.09,0.00,24.87,27.17,30.46,14.26,49.58,1012.20,2026.95,1816.26,1837.67,2118.64,599.87,589.60,13.62,0000 0000 0000 0000 000000
2017-03-25 11:35:28,0.23,6.10,0.00,24.86,27.17,30.48,14.30,49.74,1012.09,2026.97,1814.01,1836.12,2116.85,599.93,589.64,13.67,0000 0000 0000 0000 000000
2017-03-25 11:40:29,0.25,6.11,0.00,24.87,27.17,30.49,14.34,49.72,1011.86,2026.97,1811.77,1834.59,2115.09,599.84,589.37,13.72,0000 0000 0000 0000 000000
2017-03-25 11:45:30,0.23,6.13,0.00,24.88,27.17,30.48,14.36,49.67,1011.75,2026.99,1809.55,1833.07,2113.29,599.71,589.14,13.77,0000 0000 0000 0000 000000
2017-03-25 11:50:32,0.26,6.14,0.00,24.88,27.17,30.47,14.29,49.73,1011.75,2026.96,1807.21,1831.52,2111.50,599.78,589.30,13.82,0000 0000 0000 0000 000000
2017-03-25 11:55:33,0.25,6.15,0.00,24.86,27.18,30.49,14.35,49.75,1011.73,2026.97,1804.88,1829.86,2109.75,600.16,589.54,13.87,0000 0000 0000 0000 000000
2017-03-25 12:00:34,0.23,6.16,0.00,24.84,27.19,30.50,14.30,49.68,1011.73,2026.96,1802.67,1828.42,2108.00,600.34,589.74,13.92,0000 0000 0000 0000 000000
2017-03-25 12:05:35,0.24,6.18,0.00,24.83,27.20,30.51,14.35,49.71,1011.70,2026.97,1800.48,1826.90,2106.29,600.24,589.84,13.97,0000 0000 0000 0000 000000
2017-03-25 12:10:36,0.24,6.19,0.00,24.82,27.20,30.52,14.32,49.69,1011.56,2026.97,1798.21,1825.48,2104.54,600.02,589.45,14.02,0000 0000 0000 0000 000000
2017-03-25 12:15:38,0.24,6.20,0.00,24.84,27.20,30.55,14.33,49.69,1011.36,2026.96,1796.00,1823.95,2102.79,600.07,589.41,14.07,0000 0000 0000 0000 000000
2017-03-25 12:20:39,0.24,6.21,0.00,24.82,27.20,30.52,14.34,49.63,1011.25,2026.95,1793.77,1822.48,2101.04,599.79,589.15,14.12,0000 0000 0000 0000 000000
2017-03-25 12:25:41,0.21,6.22,0.00,24.82,27.20,30.53,14.36,49.56,1011.25,2026.95,1791.68,1821.03,2099.37,599.90,589.14,14.17,0000 0000 0000 0000 000000
2017-03-25 12:30:42,0.25,6.24,0.00,24.85,27.20,30.53,14.28,49.63,1011.25,2026.96,1789.45,1819.58,2097.64,599.74,588.96,14.22,0000 0000 0000 0000 000000
2017-03-25 12:35:44,0.26,6.25,0.00,24.86,27.21,30.53,14.29,49.44,1011.20,2026.95,1787.04,1817.97,2095.76,599.93,589.05,14.27,0000 0000 0000 0000 000000
2017-03-25 12:40:45,0.26,6.27,0.00,24.84,27.22,30.55,14.30,49.61,1010.90,2026.95,1784.50,1816.41,2093.82,599.74,588.63,14.32,0000 0000 0000 0000 000000
2017-03-25 12:45:47,0.25,6.28,0.00,24.83,27.22,30.56,14.26,49.65,1010.79,2026.94,1782.18,1814.84,2092.01,599.73,588.74,14.37,0000 0000 0000 0000 000000
2017-03-25 12:50:48,0.25,6.29,0.00,24.81,27.22,30.54,14.35,49.58,1010.76,2026.95,1779.92,1813.35,2090.24,600.10,589.03,14.42,0000 0000 0000 0000 000000
2017-03-25 12:55:49,0.26,6.30,0.00,24.81,27.22,30.58,14.32,49.67,1010.76,2026.90,1777.60,1811.72,2088.42,600.23,589.23,14.47,0000 0000 0000 0000 000000